Location: *
(37.5724°S, 58.0067°E)
Time: 23:15:34
(UTC+00:00)

Cosmos 1943 Rocket - Pass Details

Date: 21 January 2021
Orbit: 810 x 845 km, 71.0° (Epoch: 25 February)

Event Time Altitude Azimuth Distance (km) Brightness Sun altitude
Rises 16:05:05 0° 211° (SSW) 3,370 6.6 -7.2°
Reaches altitude 10° 16:07:39 10° 218° (SW) 2,428 6.0 -7.7°
Maximum altitude 16:12:45 38° 285° (WNW) 1,224 3.5 -8.5°
Drops below altitude 10° 16:17:47 10° 351° (N) 2,396 4.3 -9.3°
Sets 16:20:20 0° 359° (N) 3,320 5.0 -9.8°
